SL-16 DEB, 31799

Orbit data source: Space-Track

SL-16 DEB, 31799 is space debris in LEO originally from a launch on Fri, 29 Jun 2007 UTC launched from the Tyuratam Missile And Space Complex (TTMTR). Debris objects in space refer to the collection of defunct objects orbiting the Earth. Examples of debris include non-operational satellites, rocket bodies, and fragments generated from explosions, collisions, or faulty payload assembly.

Loading next visibility...
Identifier
31799, 2007-029F
Orbit
LEO
Country
Flag of CISCIS
Related business
Manufacturer
Yuzhnoe
Mission
Spacecraft
Bus & Motor
SEP MOTOR COVER, Unknown motor
Mass
~1 kg wet, ~1 kg dry
Launch date (UTC)
2007-06-29 (19 years ago)
Launch vehicle
Unknown
Launch site
Tyuratam Missile And Space Complex (TTMTR)
Object type
Payload
Rocket body
Debris
Shape & HBR
Cone, 0.5 m
Radar Cross Section
0.635 m², Medium (>0.1 m² and < 1m²)

Expand to show TLE details & history
Last TLE update: 2 days ago

TLE from 2 days ago
0 SL-16 DEB
1 31799U 07029F   26171.47501720  .00000045  00000-0  88092-4 0  9990
2 31799  70.9441 340.3172 0226068 161.5557 231.3877 13.66474930945844
Epoch: 2026-06-20T11:24Z
TLE epoch observation values (Epoch: 2026-06-20T11:24:01.486Z)
Latitude
29.14353°
Longitude
-88.33069°
Altitude
1,121.849 km
Speed
7.242 km/s
True Right ascension
23h 25m 27s
True Declination
29° 00' 17"
Sunlit
Object was in daylight at epoch
Visualization orbit readout
Latitude
Unknown
Longitude
Unknown
Altitude
Unknown
Speed
Unknown
Apparent Right ascension
Unknown
Apparent Declination
Unknown
Sunlit
N/A
Visualization observer readout
Local Sidereal Time
00:50:55
Azimuth
Unknown
Elevation
Unknown
Doppler factor
Unknown
Orbital elements
Apogee altitude
1,177.258 km
Perigee altitude
843.203 km
Semi-major axis
7,388.367 km
Eccentricity
0.02261
Inclination
70.9441°
RAAN
340.3172°
Arg. of periapsis
161.5557°
True anomaly
229.39898°
Mean anomaly
231.3877°
Eccentric anomaly
230.38982°
Mean motion
3.41759 °/min
Orbital period
105.34 mins
BSTAR
0.000088092
Loading maneuver chart data...
Computing Atmospheric mass density...

Documentation

Showing up to 5 results
|